FW7622 Weather Reports


Display with metric or nautical units.
time (UTC)temp
F
wind
direction
speed
MPH
gust
MPH
rain 1hr
in
rain 24hr
in
rain mn
in
humidity
%
barometer
mb
20260504235829 53 218 4.0 6.0 0.00 0.00 0.00 48 1001.0
20260504235326 53 174 1.0 1.0 0.00 0.00 0.00 49 1001.0
20260504234823 53 215 3.0 6.0 0.00 0.00 0.00 47 1001.0
20260504234321 53 163 1.0 3.0 0.00 0.00 0.00 47 1000.7
20260504233817 53 301 3.0 5.0 0.00 0.00 0.00 49 1000.7
20260504233313 54 345 3.0 6.0 0.00 0.00 0.00 49 1000.3
20260504232809 54 131 2.0 2.0 0.00 0.00 0.00 47 1000.7
20260504232307 54 204 1.0 2.0 0.00 0.00 0.00 48 1000.7
20260504231804 55 293 7.0 10.0 0.00 0.00 0.00 47 1000.7
20260504231300 54 223 4.0 5.0 0.00 0.00 0.00 47 1000.3
20260504230756 55 258 8.0 10.0 0.00 0.00 0.00 47 1000.3
20260504230254 55 273 5.0 7.0 0.00 0.00 0.00 47 1000.3
20260504225753 57 115 3.0 3.0 0.00 0.00 0.00 46 999.9
20260504225249 56 183 4.0 6.0 0.00 0.00 0.00 47 999.9
20260504224746 55 245 6.0 10.0 0.00 0.00 0.00 47 999.9
20260504224243 55 19 2.0 3.0 0.00 0.00 0.00 47 999.6
20260504223739 56 245 3.0 6.0 0.00 0.00 0.00 47 999.9
20260504223235 57 227 5.0 7.0 0.00 0.00 0.00 46 999.6
20260504222732 57 54 6.0 8.0 0.00 0.00 0.00 46 999.6
20260504222229 57 285 6.0 11.0 0.00 0.00 0.00 46 999.6
20260504221727 57 266 3.0 8.0 0.00 0.00 0.00 46 999.6
20260504221223 58 339 5.0 6.0 0.00 0.00 0.00 44 999.2
20260504220720 59 28 5.0 8.0 0.00 0.00 0.00 44 998.9
20260504220217 59 353 6.0 11.0 0.00 0.00 0.00 44 999.2
20260504215714 60 304 6.0 9.0 0.00 0.00 0.00 45 999.2
20260504215211 60 193 4.0 5.0 0.00 0.00 0.00 45 998.9
20260504214707 59 300 3.0 3.0 0.00 0.00 0.00 44 998.6
20260504214204 59 177 3.0 5.0 0.00 0.00 0.00 44 998.9
20260504213700 60 269 4.0 5.0 0.00 0.00 0.00 46 998.6
20260504213157 61 96 3.0 3.0 0.00 0.00 0.00 44 998.6
20260504212654 61 238 5.0 7.0 0.00 0.00 0.00 43 998.6
20260504212150 60 29 6.0 9.0 0.00 0.00 0.00 43 998.6
20260504211648 61 244 6.0 8.0 0.00 0.00 0.00 45 998.2
20260504211144 61 165 3.0 3.0 0.00 0.00 0.00 47 998.2
20260504210642 62 263 3.0 3.0 0.00 0.00 0.00 44 998.2
20260504210138 62 191 2.0 3.0 0.00 0.00 0.00 45 998.6
20260504205636 62 184 3.0 8.0 0.00 0.00 0.00 45 998.2
20260504205132 63 334 4.0 9.0 0.00 0.00 0.00 44 998.2
20260504204631 62 221 3.0 6.0 0.00 0.00 0.00 46 998.2
20260504204130 62 270 3.0 3.0 0.00 0.00 0.00 47 998.2
20260504203628 61 299 4.0 7.0 0.00 0.00 0.00 47 997.9
20260504203126 62 220 2.0 3.0 0.00 0.00 0.00 47 998.2
20260504202625 63 175 2.0 3.0 0.00 0.00 0.00 46 997.9
20260504202123 62 210 3.0 6.0 0.00 0.00 0.00 45 997.9
20260504201619 62 188 6.0 14.0 0.00 0.00 0.00 44 997.9
20260504201117 62 227 4.0 7.0 0.00 0.00 0.00 43 997.9
20260504200614 62 323 7.0 13.0 0.00 0.00 0.00 43 997.6
20260504200111 62 154 5.0 9.0 0.00 0.00 0.00 43 997.9
20260504195607 63 291 5.0 7.0 0.00 0.00 0.00 44 997.9
20260504195103 63 258 4.0 7.0 0.00 0.00 0.00 45 997.9
20260504194600 63 219 6.0 9.0 0.00 0.00 0.00 44 997.6
20260504194055 63 26 8.0 10.0 0.00 0.00 0.00 44 997.6
20260504193552 64 174 2.0 2.0 0.00 0.00 0.00 45 997.2
20260504193051 65 278 3.0 5.0 0.00 0.00 0.00 44 996.8
20260504192549 64 268 3.0 5.0 0.00 0.00 0.00 43 996.8
20260504192046 63 238 4.0 7.0 0.00 0.00 0.00 43 996.8
20260504191544 64 297 2.0 3.0 0.00 0.00 0.00 43 996.4
20260504191040 65 157 5.0 8.0 0.00 0.00 0.00 41 996.8
20260504190537 64 172 1.0 2.0 0.00 0.00 0.00 44 996.4
20260504190033 65 308 3.0 5.0 0.00 0.00 0.00 42 996.8
20260504185530 65 170 3.0 3.0 0.00 0.00 0.00 43 996.8
20260504185026 65 273 3.0 5.0 0.00 0.00 0.00 45 996.4
20260504184522 64 215 2.0 2.0 0.00 0.00 0.00 44 996.4
20260504184017 64 237 7.0 10.0 0.00 0.00 0.00 42 996.4
20260504183515 64 223 2.0 5.0 0.00 0.00 0.00 44 996.4
20260504183013 65 157 4.0 5.0 0.00 0.00 0.00 44 996.4
20260504182509 65 211 5.0 7.0 0.00 0.00 0.00 43 996.4
20260504182007 65 290 5.0 8.0 0.00 0.00 0.00 44 996.1
20260504181504 64 232 2.0 3.0 0.00 0.00 0.00 47 996.4
20260504181002 65 324 5.0 7.0 0.00 0.00 0.00 42 996.1
20260504180501 65 351 3.0 5.0 0.00 0.00 0.00 44 996.1
20260504175959 65 207 4.0 7.0 0.00 0.00 0.00 46 996.1
20260504175456 65 242 4.0 5.0 0.00 0.00 0.00 43 996.1
20260504174953 64 189 3.0 3.0 0.00 0.00 0.00 45 995.8
20260504174450 64 292 7.0 9.0 0.00 0.00 0.00 43 996.4
20260504173947 64 148 3.0 5.0 0.00 0.00 0.00 42 995.8
20260504173443 63 45 4.0 7.0 0.00 0.00 0.00 44 996.4
20260504172942 63 193 4.0 7.0 0.00 0.00 0.00 44 996.1
20260504172437 65 338 2.0 3.0 0.00 0.00 0.00 43 996.1
20260504171934 65 319 6.0 8.0 0.00 0.00 0.00 42 996.1
20260504171431 64 148 3.0 5.0 0.00 0.00 0.00 45 996.1
20260504170928 63 256 4.0 6.0 0.00 0.00 0.00 43 996.4
20260504170424 64 193 3.0 3.0 0.00 0.00 0.00 42 996.1
20260504160343 63 144 1.0 2.0 0.00 0.00 0.00 45 996.1
20260504150808 64 224 4.0 6.0 0.00 0.00 0.00 53 995.4
20260504150305 63 202 3.0 5.0 0.00 0.00 0.00 56 995.4
20260504141235 62 205 3.0 6.0 0.00 0.00 0.00 55 995.1
20260504140731 62 23 1.0 3.0 0.00 0.00 0.00 56 995.1
20260504140227 62 8 3.0 5.0 0.00 0.00 0.00 55 995.1
20260504130655 62 305 7.0 11.0 0.00 0.00 0.00 51 994.7
20260504130151 61 229 1.0 2.0 0.00 0.00 0.00 53 994.4
20260504120116 59 228 7.0 9.0 0.00 0.00 0.00 51 993.7
20260504110543 54 215 4.0 5.0 0.00 0.00 0.00 60 994.4
20260504100505 42 156 0.0 0.0 0.00 0.00 0.00 82 995.4
20260504081858 42 143 1.0 1.0 0.00 0.00 0.00 81 997.6
20260504081354 43 145 1.0 1.0 0.00 0.00 0.00 80 997.6
20260504080850 43 158 0.0 0.0 0.00 0.00 0.00 79 997.6
20260504080348 43 162 0.0 0.0 0.00 0.00 0.00 80 997.9
20260504070315 43 180 3.0 5.0 0.00 0.00 0.00 77 998.9
20260504060235 37 141 1.0 1.0 0.00 0.00 0.00 84 999.6
20260504050703 39 146 0.0 1.0 0.00 0.00 0.00 79 1001.0
20260504050200 39 141 0.0 1.0 0.00 0.00 0.00 78 1001.4
20260504045658 39 160 0.0 0.0 0.00 0.01 0.01 78 1001.4
20260504045157 39 153 0.0 0.0 0.00 0.01 0.01 77 1001.4
20260504044656 40 134 1.0 1.0 0.00 0.01 0.01 77 1001.4
20260504044153 40 154 0.0 0.0 0.00 0.01 0.01 77 1001.4
20260504043649 40 159 0.0 0.0 0.00 0.01 0.01 77 1001.7
20260504043146 40 146 0.0 0.0 0.00 0.01 0.01 77 1001.4
20260504042644 41 145 0.0 0.0 0.00 0.01 0.01 77 1001.7
20260504042140 41 145 0.0 1.0 0.00 0.01 0.01 76 1001.7
20260504041636 41 143 1.0 1.0 0.00 0.01 0.01 74 1002.1
20260504041132 41 147 1.0 1.0 0.00 0.01 0.01 73 1001.7
20260504040630 42 152 1.0 1.0 0.00 0.01 0.01 73 1002.1
20260504040127 42 153 0.0 0.0 0.00 0.01 0.01 73 1002.1
20260504035623 42 144 1.0 1.0 0.00 0.01 0.01 72 1002.4
20260504035120 43 150 0.0 1.0 0.00 0.01 0.01 71 1002.4
20260504034618 43 155 0.0 0.0 0.00 0.01 0.01 70 1002.4
20260504034114 44 156 0.0 0.0 0.00 0.01 0.01 70 1002.4
20260504033613 44 157 0.0 1.0 0.00 0.01 0.01 71 1002.4
20260504033109 44 161 0.0 0.0 0.00 0.01 0.01 71 1002.4
20260504032606 44 149 0.0 1.0 0.00 0.01 0.01 69 1002.7
20260504032103 45 157 0.0 0.0 0.00 0.01 0.01 69 1002.4
20260504031600 45 158 0.0 0.0 0.00 0.01 0.01 67 1002.4
20260504031056 46 157 0.0 0.0 0.00 0.01 0.01 67 1002.7
20260504030554 46 153 0.0 1.0 0.00 0.01 0.01 66 1002.4
20260504030050 47 151 0.0 0.0 0.00 0.01 0.01 64 1002.7
20260504025547 47 157 0.0 0.0 0.00 0.01 0.01 63 1002.7
20260504025044 48 156 0.0 0.0 0.00 0.01 0.01 63 1002.7
20260504024541 48 147 0.0 1.0 0.00 0.01 0.01 63 1003.1
20260504024038 48 161 0.0 0.0 0.00 0.01 0.01 65 1003.1
20260504023534 49 160 0.0 0.0 0.00 0.01 0.01 63 1003.1
20260504023030 49 146 0.0 1.0 0.00 0.01 0.01 61 1002.7
20260504022526 50 155 0.0 1.0 0.00 0.01 0.01 58 1003.1
20260504022023 50 152 0.0 0.0 0.00 0.01 0.01 56 1002.4
20260504021520 51 148 0.0 1.0 0.00 0.01 0.01 54 1002.7
20260504021017 51 152 0.0 0.0 0.00 0.01 0.01 53 1003.1
20260504020514 52 151 1.0 1.0 0.00 0.01 0.01 52 1002.7
20260504020011 53 156 0.0 1.0 0.00 0.01 0.01 51 1002.7
20260504015507 53 161 0.0 0.0 0.00 0.01 0.01 52 1002.7
20260504015003 54 160 0.0 0.0 0.00 0.01 0.01 49 1002.7
20260504014459 55 144 1.0 1.0 0.00 0.01 0.01 48 1002.7
20260504013956 55 150 0.0 0.0 0.00 0.01 0.01 48 1002.7
20260504013455 55 177 0.0 0.0 0.00 0.01 0.01 48 1002.7
20260504012950 56 178 0.0 0.0 0.00 0.01 0.01 48 1003.1
20260504012449 58 168 0.0 0.0 0.00 0.01 0.01 43 1003.1
20260504011946 59 168 0.0 0.0 0.00 0.01 0.01 42 1003.1
20260504011442 59 168 0.0 0.0 0.00 0.01 0.01 42 1003.1
20260504010938 59 168 0.0 0.0 0.00 0.01 0.01 42 1003.1
20260504010434 60 170 0.0 0.0 0.00 0.01 0.01 42 1003.1
20260504005930 61 176 0.0 0.0 0.00 0.01 0.01 40 1002.7
20260504005427 61 181 0.0 1.0 0.00 0.01 0.01 39 1003.1
20260504004925 62 175 0.0 0.0 0.00 0.01 0.01 38 1003.1
20260504004422 63 173 0.0 0.0 0.00 0.01 0.01 36 1003.1
20260504003919 63 174 0.0 0.0 0.00 0.01 0.01 36 1003.1
20260504003415 63 168 0.0 0.0 0.00 0.01 0.01 36 1003.1
20260504002912 64 222 0.0 1.0 0.00 0.01 0.01 34 1003.1
20260504002409 64 175 1.0 1.0 0.00 0.01 0.01 34 1003.4
20260504001907 65 263 2.0 2.0 0.00 0.01 0.01 34 1003.1
20260504001404 65 178 1.0 1.0 0.00 0.01 0.01 33 1003.1
20260504000900 65 116 3.0 5.0 0.00 0.01 0.01 32 1003.1
20260504000358 66 294 2.0 3.0 0.00 0.01 0.01 34 1003.1